Location: Bishopstone
(51.0167°N, 1.9000°W)
Time: 03:29:23
(UTC+00:00)

CZ-2C R/B - Pass Details

Date: 16 September 2019
Orbit: 705 x 907 km, 98.1° (Epoch: 17 October)

Event Time Altitude Azimuth Distance (km) Brightness Sun altitude
Exits shadow 19:04:04 - 113° (ESE) 2,456 5.0 -7.6°
Reaches altitude 10° 19:04:22 10° 112° (ESE) 2,365 4.9 -7.7°
Maximum altitude 19:08:35 25° 58° (ENE) 1,600 4.3 -8.3°
Drops below altitude 10° 19:12:58 10° 5° (N) 2,485 5.8 -9.0°
Sets 19:15:46 0° 353° (N) 3,457 6.7 -9.4°
